Tracking 19706 objects as of 16-Jun-2019
HD Live streaming from Space Station
objects crossing your sky now

DELTA 1 DEB

Track DELTA 1 DEB now!
10-day predictions


NORAD ID: 7013
Int'l Code: 1973-086D
Perigee: 1,411.3 km
Apogee: 1,518.6 km
Inclination: 101.8 °
Period: 115.1 minutes
Semi major axis: 7835 km
RCS: 0.9452 m2 (medium)
Launch date: November 6, 1973
Source: United States (US)
Launch site: AIR FORCE WESTERN TEST RANGE (AFWTR)

Note: This is SATELLITE DEBRIS
aabbcc
Your satellite tracking list
Your tracking list is empty




NASA's NSSDC Master Catalog

Two Line Element Set (TLE):
1  7013U 73086D   19167.00631708 -.00000037  00000-0  52931-4 0  9999
2  7013 101.7775 137.2388 0068474 303.2689 104.5620 12.51589774 82505
Source of the keplerian elements: AFSPC